Regional Weather Roundup
Issued by NWS

Home | Current Version | Previous Version | Graphics & Text | Print | Product List | Glossary On
Versions: 1 2 3 4 5 6 7 8 9 10 11 12 13 14 15 16 17 18 19 20 21 22 23 24 25 26 27 28 29 30 31 32 33 34 35 36 37 38 39 40 41 42 43 44 45 46 47 48 49 50
000
ASUS43 KDMX 271107
RWRIA

WEATHER ROUNDUP FOR IOWA
NATIONAL WEATHER SERVICE DES MOINES IA
500 AM CST SAT DEC 27 2014

NOTE: "FAIR" INDICATES FEW OR NO CLOUDS BELOW 12,000 FEET WITH NO
SIGNIFICANT WEATHER AND/OR OBSTRUCTIONS TO VISIBILITY.

* - THESE STATIONS ARE NOT NWS STATIONS...THUS NOT UNDER NWS
QUALITY CONTROL.  THEY ALSO DO NOT REPORT WEATHER SUCH
AS PRECIPITATION OR FOG.

IAZ001>003-012>014-020>022-031>034-043>046-271200-
   NORTHWEST IOWA

CITY           SKY/WX    TMP DP  RH WIND       PRES   REMARKS
CARROLL *      MOCLDY    27  23  86 NW14G22   30.05R WCI  15
CHEROKEE *     FLURRIES  23  21  93 NW12      30.08R WCI  12
DENISON *      FLURRIES  25  23  93 NW14      30.06S WCI  13
LE MARS *      FLURRIES  23  19  86 NW15      30.11F WCI  10
ORANGE CITY *  LGT SNOW  21  18  86 NW12      30.08S WCI   9
SHELDON *      LGT SNOW  21  19  93 NW17      30.07S WCI   7
SIOUX CITY     LGT SNOW  23  19  85 NW17      30.12S FOG     WCI   9
SPENCER        LGT SNOW  23  18  81 NW16G28   30.05R WCI  10
STORM LAKE *   LGT SNOW  23  21  93 NW14G20   30.06R WCI  11
$$

IAZ055>058-069>071-079>083-090>094-271200-
   SOUTHWEST IOWA

CITY           SKY/WX    TMP DP  RH WIND       PRES   REMARKS
ATLANTIC *     CLOUDY    27  25  93 NW14      30.06S WCI  15
AUDUBON *      CLEAR     27  21  80 NW10G17   30.04F WCI  17
CLARINDA *     CLOUDY    30  27  86 NW15G22   30.10R WCI  19
COUNCIL BLFS * CLOUDY    25  25 100 NW14G26   30.10R WCI  13
CRESTON *      CLOUDY    30  30 100 NW15G21   30.03R WCI  19
HARLAN  *      CLOUDY    25  27 100 NW17      30.10S WCI  11
LAMONI         CLOUDY    33  31  92 W13       30.03R WCI  24
RED OAK *      CLOUDY    28  27  93 NW16G24   30.08F WCI  17
SHENANDOAH *   CLOUDY    28  27  93 NW13G22   30.12R WCI  18
$$

IAZ047>049-059>061-072>074-084-271200-
   CENTRAL IOWA

CITY           SKY/WX    TMP DP  RH WIND       PRES   REMARKS
AMES           CLOUDY    31  28  89 NW13      29.99R WCI  21
ANKENY *       CLOUDY    32  30  93 NW16G22   30.00R WCI  21
CHARITON *     CLOUDY    34  32  93 W13       30.01R WCI  25
DES MOINES     CLOUDY    33  29  85 NW15      30.01R WCI  23
GRINNELL*      CLOUDY    34  32  93 W17G23    29.97R WCI  23
KNOXVILLE *    CLOUDY    34  32  93 W17       29.98S WCI  23
MARSHALLTOWN   CLOUDY    32  31  96 W17       29.95R WCI  21
PELLA *        CLOUDY    34  33  97 W14       30.00R WCI  24
PERRY *        CLOUDY    30  28  93 NW13G21   30.03R WCI  20
$$

IAZ004>006-015-016-023>025-035-036-271200-
   NORTH CENTRAL IOWA

CITY           SKY/WX    TMP DP  RH WIND       PRES   REMARKS
ALGONA *       MIX PCPN  25  23  93 N18G26    30.01R WCI  11
CLARION *      LGT SNOW  27  27 100 NW21      29.99R WCI  13
ESTHERVILLE    LGT SNOW  23  20  88 NW22      30.02R FOG     WCI   8
FORT DODGE *   CLOUDY    27  21  80 NW8       30.02R WCI  18
MASON CITY     MIX PCPN  28  25  88 NW21      29.94F WCI  15
FOREST CITY *  CLOUDY    28  25  86 NW18G24   29.95S WCI  16
IOWA FALLS *   CLOUDY    30  28  93 NW17      29.96R WCI  18
$$

IAZ007>011-017>019-026>030-037>042-050>054-066-271200-
   NORTHEAST IOWA

CITY           SKY/WX    TMP DP  RH WIND       PRES   REMARKS
CEDAR RAPIDS   LGT RAIN  36  36 100 W13       29.92R FOG     WCI  27
CHARLES CITY * CLOUDY    32  32 100 NW14      29.91R WCI  22
CLINTON *      CLOUDY    48  45  87 S15       29.91F
DECORAH *      LGT RAIN  32  32 100 VRB3      29.86S VSB 1/4
DUBUQUE        CLOUDY    42  40  92 S14       29.85S
MONTICELLO *   LGT RAIN  39  39 100 W9        29.90R WCI  33
OELWEIN *      CLOUDY    36  36 100 SW17      29.89S FOG     WCI  25
WATERLOO       CLOUDY    33  33 100 W14       29.91R FOG     WCI  23
$$

IAZ064-065-067-068-078-271200-
   EAST CENTRAL IOWA

CITY           SKY/WX    TMP DP  RH WIND       PRES   REMARKS
DAVENPORT      CLOUDY    48  46  93 S14       29.89F FOG
IOWA CITY      CLOUDY    39  38  96 W15       29.95R WCI  31
MT. PLEASANT * CLOUDY    39  39 100 W15G21    29.98R WCI  31
MUSCATINE *    LGT RAIN  46  45  93 W21       29.94R
QUAD CITIES    CLOUDY    49  47  93 S12       29.89F FOG
$$

IAZ062-063-075>077-085>089-095>099-271200-
   SOUTHEAST IOWA

CITY           SKY/WX    TMP DP  RH WIND       PRES   REMARKS
BURLINGTON     LGT RAIN  50  48  93 S18G24    29.93S
FAIRFIELD *    CLOUDY    37  36  93 W17G24    29.98R WCI  28
FORT MADISON * CLOUDY    46  45  93 W14G28    29.98R FOG
KEOKUK *       CLOUDY    45  43  93 W18G28    29.99R FOG
OSKALOOSA *    CLOUDY    34  32  93 W18       29.99R WCI  23
CENTERVILLE *  CLOUDY    34  32  93 W18G26    30.03R WCI  23
OTTUMWA        CLOUDY    35  33  92 W16G23    29.99R WCI  25
WASHINGTON *   CLOUDY    37  37 100 W9        29.97R FOG     WCI  31
$$

ABBREVIATIONS USED IN REMARKS
   TC - TEMPERATURES IN CELSIUS
  WCI - WIND CHILL INDEX
   HX - HEAT INDEX
  VSB - VISIBILITY
$$




USA.gov is the U.S. government's official web portal to all federal, state and local government web resources and services.